User: anonymous   Login
Location: B�rgermoos
(47.6500°N, 9.0667°E)
Time: 18:42:50
(UTC+00:00)
Language:

Vanguard 1 Rocket - Orbit

View from above orbital plane
View from above orbital plane
View from above satellite
View from above satellite

Ground track
Ground track

The orbit data is extracted from the following two-line orbital elements,

1 00016U 58002A   21207.28611747  .00000212  00000-0  29892-3 0  9998
2 00016  34.2651  68.7420 2027664 140.3902 236.3907 10.48741480501231
Epoch (UTC): 26 July 2021 06:52:00
Eccentricity: 0.2027664
inclination: 34.2651°
perigee height: 650 km
apogee height: 4226 km
right ascension of ascending node: 68.7420°
argument of perigee: 140.3902°
revolutions per day: 10.48741480
mean anomaly at epoch: 236.3907°
orbit number at epoch: 50123

The dashed part of the orbit path shows where the satellite is in the earth's shadow,  

DLR